[[{"header":{"parameterUnit":"m.s-1","parameterCategory":1,"la1":30.2991,"la2":30.254,"lo1":-89.0895,"lo2":-89.0444,"dy":0.0017,"dx":0.0017,"nx":28,"ny":28,"refTime":"2023-04-05T15:00:00:Z","depth":0,"parameterNumber":2,"parameterNumberName":"U-component_of_WINDS"},"data":[0,0,0,0,0,0,0,0,0,0,0,0,0,0,0,0,0,0,0,0,0,0,0,0,0,0,0,0,0,0,0,0,0,0,0,0,0,0,0,0,0,0,0,0,0,0,0,0,0,0,0,0,0,0,0,0,0,0,-1.3959,-1.3959,0,-1.3958,-1.3958,-1.3958,-1.3955,-1.3955,-1.3955,-1.3955,-1.3954,-1.3954,-1.3954,0,0,0,0,0,0,0,0,0,0,0,0,0,-1.3957,-1.3957,-1.3959,-1.3959,-1.3959,-1.3958,-1.3958,-1.3958,-1.3955,-1.3955,-1.3955,-1.3955,-1.3954,-1.3954,-1.3954,0,0,0,0,0,0,0,0,0,0,0,0,0,-1.3957,-1.3957,-1.3959,-1.3957,-1.3957,-1.3958,-1.3958,-1.3958,-1.3955,-1.3955,-1.3955,-1.3955,-1.3954,-1.3954,-1.3954,-1.3957,0,0,-1.3955,-1.3955,0,0,0,0,0,0,0,0,-1.3957,-1.3957,-1.3957,-1.3957,-1.3957,-1.3957,-1.3957,-1.3958,-1.3955,-1.3956,-1.3955,-1.3955,-1.3955,-1.3955,-1.3955,-1.3957,-1.3957,-1.3955,-1.3955,-1.3955,-1.3955,0,0,0,0,0,0,0,-1.3957,-1.3957,-1.3959,-1.3957,-1.3957,-1.3956,-1.3956,-1.3957,-1.3956,-1.3956,-1.3956,-1.3956,-1.3955,-1.3955,-1.3955,-1.3957,-1.3955,-1.3955,-1.3955,-1.3955,-1.396,-1.396,0,0,0,0,0,0,-1.3958,-1.3957,-1.3959,-1.3959,-1.3957,-1.3957,-1.3956,-1.3957,-1.3956,-1.3956,-1.3956,-1.3955,-1.3955,-1.3955,-1.3955,-1.3958,-1.3955,-1.3955,-1.3955,-1.396,-1.396,-1.396,0,0,0,0,0,0,-1.3958,-1.3958,-1.3959,-1.3958,-1.3958,-1.3957,-1.3957,-1.3957,-1.3957,-1.3956,-1.3956,-1.3956,-1.3955,-1.3955,-1.3956,-1.3958,-1.3955,-1.3955,-1.396,-1.396,-1.396,-1.3963,0,0,0,0,0,0,-1.3957,-1.3958,-1.3959,-1.3958,-1.3958,-1.396,-1.3957,-1.3957,-1.3957,-1.3957,-1.3956,-1.3956,-1.3955,-1.3956,-1.3956,-1.3958,-1.3955,-1.396,-1.396,-1.396,-1.3963,-1.3963,-1.3964,0,0,0,0,0,-1.3957,-1.396,-1.3959,-1.3959,-1.3959,-1.396,-1.396,-1.3959,-1.3957,-1.3958,-1.3958,-1.3956,-1.3958,-1.3956,-1.3957,-1.3958,-1.396,-1.396,-1.396,-1.3963,-1.3963,-1.3964,0,0,0,0,0,0,-1.3961,-1.396,-1.3959,-1.3961,-1.3961,-1.396,-1.3961,-1.3959,-1.396,-1.3959,-1.3958,-1.3958,-1.3959,-1.3959,-1.3957,-1.396,-1.3958,-1.3959,-1.396,-1.3961,-1.3961,-1.3961,-1.3955,0,0,0,0,0,-1.3962,-1.3963,-1.3961,-1.3963,-1.3963,-1.3962,-1.3962,-1.3961,-1.3961,-1.3961,-1.396,-1.396,-1.396,-1.3961,-1.3961,-1.3963,-1.3963,-1.3964,-1.3964,-1.3965,-1.3965,-1.3966,-1.3966,-1.3961,-1.3961,-1.3961,0,0,-1.3964,-1.3963,-1.3964,-1.3964,-1.3964,-1.3964,-1.3962,-1.3963,-1.3963,-1.3961,-1.3962,-1.3962,-1.3961,-1.3963,-1.3964,-1.3963,-1.3966,-1.3965,-1.3965,-1.3965,-1.3966,-1.3966,-1.3967,-1.3961,-1.3961,-1.3961,0,0,-1.3968,-1.3968,-1.3969,-1.3969,-1.3968,-1.3967,-1.3968,-1.3967,-1.3966,-1.3967,-1.3966,-1.3966,-1.3967,-1.3966,-1.3966,-1.397,-1.3968,-1.397,-1.3972,-1.3973,-1.3973,-1.3974,-1.3975,-1.3975,-1.397,-1.397,-1.397,0,-1.397,-1.3971,-1.397,-1.3971,-1.3971,-1.3969,-1.397,-1.397,-1.3969,-1.3969,-1.3968,-1.3969,-1.3969,-1.397,-1.3971,-1.3971,-1.3971,-1.397,-1.3973,-1.3974,-1.3974,-1.3975,-1.3975,-1.397,-1.397,-1.397,-1.397,0,-1.3974,-1.3975,-1.3976,-1.3976,-1.3976,-1.3977,-1.3975,-1.3976,-1.3975,-1.3974,-1.3975,-1.3974,-1.3974,-1.3974,-1.3974,-1.3976,-1.3975,-1.3974,-1.3972,-1.3975,-1.3975,-1.3976,-1.3971,-1.3971,-1.3971,-1.3971,0,0,-1.398,-1.3979,-1.3979,-1.3979,-1.3978,-1.3979,-1.3979,-1.3979,-1.3979,-1.3979,-1.398,-1.398,-1.3979,-1.3979,-1.3978,-1.3979,-1.3981,-1.3977,-1.3977,-1.3978,-1.3983,-1.3983,-1.3984,-1.398,-1.398,-1.398,-1.3983,0,-1.3984,-1.3985,-1.3984,-1.3985,-1.3986,-1.3984,-1.3984,-1.3984,-1.3983,-1.3983,-1.3982,-1.3982,-1.3981,-1.3981,-1.3981,-1.398,-1.3982,-1.398,-1.398,-1.398,-1.398,-1.3984,-1.3985,-1.3987,-1.3983,-1.3983,-1.3983,0,-1.3988,-1.3988,-1.3989,-1.3988,-1.3988,-1.3989,-1.3988,-1.3989,-1.3988,-1.3987,-1.3987,-1.3986,-1.3986,-1.3985,-1.3985,-1.3984,-1.3984,-1.3984,-1.3984,-1.3984,-1.3982,-1.3984,-1.3988,-1.3988,-1.3984,-1.3983,-1.3983,0,-1.3992,-1.3992,-1.3993,-1.3992,-1.3991,-1.3992,-1.3991,-1.399,-1.399,-1.399,-1.399,-1.399,-1.3989,-1.3989,-1.3988,-1.3987,-1.3988,-1.3987,-1.3988,-1.3988,-1.3988,-1.3988,-1.3992,-1.3988,-1.3988,-1.3988,-1.3988,0,-1.3995,-1.3996,-1.3994,-1.3995,-1.3996,-1.3994,-1.3995,-1.3994,-1.3993,-1.3994,-1.3992,-1.3992,-1.399,-1.399,-1.3989,-1.399,-1.399,-1.3989,-1.3989,-1.3989,-1.3989,-1.3989,-1.3989,-1.3989,-1.3989,-1.3989,-1.3989,0,-1.4,-1.3998,-1.3999,-1.3998,-1.3997,-1.3998,-1.3997,-1.3997,-1.3996,-1.3996,-1.3996,-1.3995,-1.3995,-1.3993,-1.3993,-1.3992,-1.3993,-1.3993,-1.3993,-1.3993,-1.3994,-1.3994,-1.3998,-1.3998,-1.3995,-1.3995,-1.3995,0,-1.4002,-1.4003,-1.4001,-1.4001,-1.4001,-1.4001,-1.4001,-1.3999,-1.3999,-1.3998,-1.3998,-1.3998,-1.3998,-1.3998,-1.3997,-1.3996,-1.3995,-1.3997,-1.3995,-1.3996,-1.3995,-1.3995,-1.3995,-1.3997,-1.3997,-1.3997,-1.3997,0,-1.4006,-1.4005,-1.4005,-1.4005,-1.4004,-1.4004,-1.4004,-1.4004,-1.4002,-1.4002,-1.4002,-1.4001,-1.4001,-1.4,-1.4,-1.3999,-1.3998,-1.3998,-1.3998,-1.3998,-1.3998,-1.3998,-1.3994,-1.3998,-1.3998,-1.3998,-1.3998,-1.3998,-1.4009,-1.401,-1.4009,-1.4008,-1.4008,-1.4007,-1.4007,-1.4006,-1.4006,-1.4005,-1.4005,-1.4004,-1.4003,-1.4003,-1.4002,-1.4002,-1.4001,-1.4001,-1.4001,-1.4001,-1.4002,-1.3999,-1.4002,-1.4002,-1.4002,-1.4002,-1.4002,0,-1.4013,-1.4012,-1.4012,-1.4011,-1.4011,-1.401,-1.4009,-1.4009,-1.4009,-1.4008,-1.4008,-1.4007,-1.4007,-1.4006,-1.4005,-1.4005,-1.4005,-1.4005,-1.4005,-1.4005,-1.4002,-1.4002,-1.4006,-1.4006,-1.4006,-1.4006,-1.4006,-1.4006,-1.4015,-1.4015,-1.4014,-1.4014,-1.4013,-1.4013,-1.4013,-1.4012,-1.4012,-1.4011,-1.4011,-1.401,-1.4009,-1.4009,-1.4008,-1.4008,-1.4007,-1.4008,-1.4008,-1.4005,-1.4005,-1.4005,-1.4004,-1.4008,-1.4008,-1.401,-1.401,-1.401]},{"header":{"parameterUnit":"m.s-1","parameterCategory":1,"la1":30.2991,"la2":30.254,"lo1":-89.0895,"lo2":-89.0444,"dy":0.0017,"dx":0.0017,"nx":28,"ny":28,"refTime":"2023-04-05T15:00:00:Z","depth":0,"parameterNumber":3,"parameterNumberName":"V-component_of_WINDS"},"data":[0,0,0,0,0,0,0,0,0,0,0,0,0,0,0,0,0,0,0,0,0,0,0,0,0,0,0,0,0,0,0,0,0,0,0,0,0,0,0,0,0,0,0,0,0,0,0,0,0,0,0,0,0,0,0,0,0,0,2.5054,2.5055,0,2.5146,2.5147,2.5148,2.5176,2.5176,2.5175,2.5175,2.5267,2.5269,2.5272,0,0,0,0,0,0,0,0,0,0,0,0,0,2.4902,2.4905,2.5054,2.5055,2.5057,2.5146,2.5147,2.5149,2.5176,2.5175,2.5175,2.5174,2.5266,2.5269,2.5272,0,0,0,0,0,0,0,0,0,0,0,0,0,2.4978,2.4906,2.5054,2.5081,2.5085,2.5146,2.5147,2.5149,2.5176,2.5175,2.5175,2.5174,2.5264,2.5269,2.5273,2.5313,0,0,2.5286,2.5288,0,0,0,0,0,0,0,0,2.4974,2.4984,2.5076,2.5079,2.5083,2.5149,2.5127,2.5204,2.5176,2.5141,2.5175,2.5174,2.5228,2.5235,2.5254,2.5318,2.5321,2.5286,2.5289,2.5291,2.5292,0,0,0,0,0,0,0,2.4969,2.498,2.5091,2.5077,2.5082,2.5089,2.5099,2.5142,2.5187,2.5144,2.5147,2.5157,2.523,2.525,2.5256,2.5323,2.5286,2.529,2.5293,2.5294,2.5427,2.5428,0,0,0,0,0,0,2.4959,2.4976,2.5088,2.5093,2.5026,2.5092,2.5103,2.5129,2.5187,2.5195,2.5158,2.5158,2.5243,2.5251,2.5259,2.5312,2.5291,2.5295,2.5297,2.5426,2.5427,2.5428,0,0,0,0,0,0,2.4956,2.4969,2.5084,2.5035,2.505,2.5095,2.5124,2.5131,2.5151,2.5197,2.5205,2.517,2.5242,2.5253,2.53,2.5316,2.5297,2.5301,2.5425,2.5426,2.5428,2.5417,0,0,0,0,0,0,2.4951,2.4967,2.4983,2.5035,2.5053,2.5123,2.5124,2.5133,2.5158,2.516,2.521,2.5218,2.5243,2.5294,2.5305,2.5322,2.5304,2.5424,2.5425,2.5427,2.5416,2.5418,2.542,0,0,0,0,0,2.4946,2.4976,2.4984,2.4997,2.5074,2.5124,2.5134,2.5162,2.5159,2.5176,2.5206,2.5217,2.5312,2.5298,2.5311,2.5329,2.5423,2.5425,2.5427,2.5416,2.5418,2.542,0,0,0,0,0,0,2.4923,2.4983,2.4993,2.504,2.5077,2.5129,2.515,2.5163,2.5201,2.5201,2.5234,2.5245,2.529,2.5314,2.5297,2.5373,2.5368,2.5373,2.5355,2.5358,2.5359,2.5353,2.5308,0,0,0,0,0,2.4923,2.496,2.501,2.5048,2.5066,2.5105,2.5128,2.5147,2.5186,2.5201,2.5235,2.5272,2.5311,2.5335,2.5373,2.542,2.5432,2.5439,2.544,2.5441,2.5445,2.5474,2.5478,2.5435,2.5435,2.5435,0,0,2.4925,2.4962,2.4983,2.5044,2.5075,2.5112,2.5118,2.5156,2.5185,2.5207,2.5254,2.528,2.5324,2.5371,2.5394,2.5393,2.546,2.5444,2.5445,2.5448,2.5477,2.5481,2.5484,2.5436,2.5436,2.5436,0,0,2.4947,2.4978,2.5014,2.5045,2.5092,2.5119,2.5127,2.5177,2.5196,2.5244,2.5262,2.5296,2.5361,2.5393,2.5417,2.5453,2.5465,2.5464,2.5473,2.55,2.5504,2.5507,2.5522,2.5526,2.5468,2.5468,2.5468,0,2.4943,2.5,2.503,2.5069,2.5096,2.512,2.5156,2.5185,2.5241,2.5259,2.5257,2.5342,2.5373,2.5429,2.5438,2.5456,2.5468,2.5459,2.5501,2.5505,2.5508,2.5522,2.5527,2.5468,2.5468,2.5468,2.5468,0,2.4994,2.5033,2.5056,2.5112,2.5142,2.5179,2.5215,2.5241,2.5258,2.5284,2.5334,2.5372,2.5419,2.5434,2.5449,2.5493,2.5491,2.5495,2.5491,2.5511,2.5525,2.5531,2.5467,2.5467,2.5467,2.5467,0,0,2.5003,2.5077,2.5085,2.5112,2.5166,2.5197,2.5236,2.5283,2.5306,2.5344,2.5379,2.5434,2.5439,2.5467,2.5486,2.551,2.5539,2.5511,2.5513,2.5516,2.5591,2.5589,2.5595,2.5547,2.5548,2.5549,2.5588,0,2.5033,2.5105,2.5134,2.5192,2.523,2.5253,2.5288,2.5325,2.5351,2.5387,2.5415,2.5455,2.5457,2.5474,2.5499,2.553,2.5554,2.5527,2.558,2.5581,2.5569,2.5602,2.56,2.5635,2.5594,2.5595,2.5595,0,2.5078,2.5119,2.5181,2.5233,2.525,2.528,2.5327,2.5361,2.5404,2.5421,2.5453,2.5472,2.5514,2.5507,2.5567,2.5548,2.5571,2.559,2.5592,2.5599,2.559,2.5611,2.5647,2.5652,2.5604,2.5603,2.5603,0,2.5081,2.5151,2.5198,2.522,2.5281,2.5302,2.5328,2.5371,2.5398,2.5439,2.5457,2.5502,2.5526,2.5561,2.5591,2.5583,2.5649,2.5644,2.5665,2.5664,2.5678,2.5677,2.5719,2.5691,2.5691,2.5691,2.5691,0,2.5112,2.5149,2.52,2.5229,2.5272,2.5306,2.5347,2.5375,2.5413,2.5448,2.5471,2.5503,2.5541,2.5578,2.5602,2.5649,2.5659,2.5675,2.5682,2.5674,2.5672,2.569,2.5689,2.5692,2.5692,2.5691,2.5691,0,2.5123,2.5158,2.5211,2.5266,2.528,2.531,2.5356,2.5386,2.5413,2.5457,2.547,2.5513,2.5558,2.5592,2.565,2.5667,2.5717,2.5723,2.5703,2.5706,2.5726,2.5725,2.5783,2.5793,2.5756,2.5756,2.5756,0,2.5141,2.5171,2.5229,2.5255,2.5282,2.5322,2.5351,2.5385,2.5414,2.5467,2.549,2.5537,2.5577,2.5648,2.5685,2.573,2.5738,2.5755,2.5745,2.5737,2.574,2.5739,2.5743,2.5757,2.5757,2.5757,2.5757,0,2.517,2.5187,2.5228,2.5275,2.5309,2.5348,2.5387,2.5407,2.5448,2.5479,2.5527,2.5558,2.5619,2.5666,2.5715,2.5742,2.5757,2.576,2.5768,2.5761,2.5749,2.5758,2.5708,2.5759,2.5759,2.5759,2.5758,2.5758,2.5187,2.5215,2.5261,2.5306,2.534,2.5376,2.5407,2.544,2.548,2.5533,2.5551,2.56,2.5644,2.5712,2.574,2.578,2.578,2.579,2.5793,2.5795,2.5796,2.5742,2.5788,2.5788,2.5788,2.5788,2.5788,0,2.5218,2.525,2.5291,2.5346,2.5382,2.5394,2.5438,2.5468,2.5511,2.5551,2.5591,2.5646,2.5693,2.5733,2.5782,2.5805,2.5814,2.5817,2.5816,2.5823,2.5792,2.5782,2.581,2.581,2.581,2.581,2.581,2.581,2.5239,2.5289,2.5311,2.5378,2.5409,2.5459,2.5483,2.5517,2.555,2.5611,2.5651,2.5677,2.5718,2.577,2.5813,2.5824,2.5842,2.5844,2.5856,2.5827,2.5825,2.5822,2.5813,2.5847,2.5847,2.5884,2.5884,2.5885]}]]